World > North America > United States > Iowa > Julien  

Julien, IA Hourly Weather Updates

Feedback E-mail the Weather

Quick Clicks

Julien, IA Weather Maps

°F °C°F °C
Julien Weather Map
UTC Time: 7/16/2024, 15:32
Your Time:

Julien, IA Regional Weather

Expires:202407161600;;135059
ASUS43 KDMX 161506
RWRIA 

WEATHER ROUNDUP FOR IOWA
NATIONAL WEATHER SERVICE DES MOINES IA
1000 AM CDT TUE JUL 16 2024

NOTE: "FAIR" INDICATES FEW OR NO CLOUDS BELOW 12,000 FEET WITH NO
SIGNIFICANT WEATHER AND/OR OBSTRUCTIONS TO VISIBILITY.

* - THESE STATIONS ARE NOT NWS STATIONS...THUS NOT UNDER NWS
QUALITY CONTROL.  THEY ALSO DO NOT REPORT WEATHER SUCH 
AS PRECIPITATION OR FOG.  


IAZ007>011-017>019-026>030-037>042-050>054-066-161600-
   NORTHEAST IOWA
  
CITY           SKY/WX    TMP DP  RH WIND       PRES   REMARKS
CEDAR RAPIDS   MOSUNNY   77  71  82 NW5       29.84R TC  25           
CHARLES CITY * SUNNY     75  66  73 N10       29.87S TC  24           
CLINTON *      CLOUDY    76 N/A N/A VRB3      29.83R TC  24           
DECORAH *      SUNNY     75  68  78 N7        29.84S TC  24           
MONTICELLO *   CLOUDY    73  73 100 N8        29.82R TC  23           
OELWEIN *      SUNNY     75  70  83 N8        29.87R TC  24           
WATERLOO       SUNNY     77  67  71 N9        29.86R TC  25           
$$
 

SKY/WX - Weather  TMP - Temperature  DP - Dew Point  RH - Humidity
WIND - Wind Direction/Speed PRES - Barometric Pressure VSB - Visibility
WCI - Wind Chill Index E13G22 Wind - East Wind 13 mph/Gusts of 22 mph

Trending Headlines

Trending Entertainment Headlines

Julien Radar Loop

Use the map search tool if you want to place a location marker on the radar map...

Julien Quick Facts

National Two Day Weather Forecast


E-mail the Julien Weather Forecast

Voice your opinion or tell us about page issues...